Find Starlink 4489

NORAD ID: 53542 Int'l Des: 2022-101 Owner: SPXS Country: US Constellation: starlink operational
LEOCIRCULAR

当前视图

正在加载3D地球...

About Starlink 4489

Starlink 4489 (NORAD 53542) is a starlink constellation satellite (v1.5) launched Aug 19, 2022 by SPXS of US. It operates in LEO, CIRCULAR orbit with a mass of 300.00 kg.

关于 Starlink 4489

正在加载描述...

即将过境

Passes for default location (London). Set your location on the main map for personalized predictions.

高度历史

Loading altitude history...

两行轨道根数

1 53542U 22101R 26168.83335647 .00064950 00000-0 36291-2 0 9994
2 53542 53.1593 334.4147 0001616 105.1052 182.6908 15.12918294 5833
Epoch: Jun 17, 2026 • Age: 5 hours

当前状态

高度 530.7 km
速度 7.60 km/s
星下点 -10.95°S, 43.66°E
发射日期 Aug 19, 2022
运行时间 3.8 years
类型 internet

技术详情

分类 Payload
质量 300.00 kg
干质量 290.00 kg
总质量 300.00 kg
长度 0.20 m
直径 2.80 m
跨度 9.00 m
形状 Box + pan
制造商 SPXS
平台类型 Starlink
阶段状态 In Orbit
所有者/国家 SPXS/US

Most Searched